Temp
20 19 18 18 18 17 15 17 17 16 15 15 15 15 16 15 15 15 15 15 15 15 15 15 15 14 13 13 13 14 14 14 14 14 14 14 13 14 14 14 14 14 15
22 20 19 18 18 17 15 17 17 17 16 15 15 16 15 15 15 15 15 15 15 15 16 16 16 16 15 15 14 14 14 14 14 14 14 14 14 14 14 14 14 14 14
21 20 19 18 18 17 15 17 17 17 16 16 16 16 16 16 16 15 15 16 16 16 16 16 16 16 16 15 15 14 14 14 13 13 13 13 13 14 14 13 14 14 14
21 20 19 18 18 18 16 17 17 17 15 15 15 15 16 16 16 16 16 16 16 16 16 16 16 16 16 15 15 14 14 13 13 13 13 13 13 14 13 13 14 14 14
19 19 19 18 18 18 17 17 17 16 15 15 15 16 16 16 16 16 16 16 16 16 16 16 16 15 15 15 15 14 13 13 13 13 13 13 14 13 13 13 13 13 13
18 19 19 18 18 18 17 16 16 15 15 15 16 16 16 16 17 17 16 16 16 16 16 16 15 15 15 15 15 14 13 12 12 13 13 13 13 13 13 13 12 12 12
18 18 18 18 18 17 17 16 15 14 15 15 16 16 16 16 17 16 16 16 16 16 16 15 15 14 14 13 13 13 13 13 13 13 12 12 12 13 13 12 12 12 12
17 17 17 17 17 16 15 15 15 15 15 15 16 16 16 16 16 16 16 16 15 15 15 15 15 13 12 12 12 12 12 12 12 12 12 13 12 11 11 12 12 12 11
16 16 16 16 16 15 15 14 14 15 15 15 16 16 16 16 16 16 16 15 15 15 15 15 13 11 11 11 11 11 11 11 12 11 12 12 12 11 11 10 11 11 11
16 15 15 15 15 14 14 14 15 15 15 15 16 16 15 15 16 15 15 15 15 15 15 14 12 11 11 10 10 11 11 11 11 11 11 11 11 11 10 9 9 12 12
14 14 14 15 14 14 14 15 15 15 15 16 16 15 15 15 15 15 15 15 15 14 15 13 13 11 11 10 11 11 11 11 11 11 11 11 11 9 9 10 10 12 12
14 15 14 14 14 14 14 15 15 15 16 16 15 15 14 14 15 15 14 14 14 13 13 12 12 11 11 11 11 11 11 11 11 10 10 10 9 9 9 11 12 11 12
13 14 14 14 14 15 14 15 15 16 15 15 15 15 14 14 15 15 14 14 14 12 12 11 12 11 11 11 12 12 11 11 11 10 10 11 11 10 10 10 10 11 11
12 13 14 14 13 14 14 15 15 15 15 15 15 14 14 14 14 14 14 13 12 12 12 12 12 12 11 11 11 12 11 11 10 11 11 11 11 10 9 8 8 9 10
11 12 13 14 13 13 13 14 15 15 15 15 14 14 14 14 14 14 13 12 11 11 11 12 12 12 12 11 11 11 11 11 11 11 11 11 11 11 10 8 7 7 8
10 10 12 13 14 13 13 14 15 14 14 14 14 14 13 13 13 13 12 12 11 11 11 11 11 12 11 11 11 10 11 11 11 11 10 10 10 10 10 10 10 10 9
11 11 12 11 13 13 13 13 14 14 14 13 13 13 13 12 12 12 12 12 11 10 11 11 11 11 11 11 11 10 10 10 10 10 10 10 10 10 10 9 9 9 9
10 11 11 11 10 13 13 13 13 13 13 12 12 12 12 12 12 12 12 11 11 10 11 11 11 11 11 10 10 10 10 10 10 10 10 9 9 9 9 9 9 9 9
11 11 12 10 9 10 11 12 12 12 12 11 11 11 11 11 11 11 11 11 11 10 10 10 10 10 10 10 10 10 10 10 10 9 9 9 9 9 9 9 9 8 8
10 11 12 10 8 7 7 9 10 10 10 11 11 11 11 11 11 11 11 11 11 11 11 10 10 10 10 10 10 10 10 9 9 9 9 9 9 9 8 8 8 8 8
10 11 10 11 9 7 7 7 9 9 9 10 10 10 10 10 10 10 10 11 11 11 11 10 11 11 10 10 10 10 10 9 9 9 9 9 9 8 8 8 8 8 8
10 10 10 9 10 10 9 8 8 9 9 9 9 10 10 10 10 10 11 11 11 11 11 11 11 11 10 10 10 10 10 9 9 9 9 9 8 8 8 8 7 7 7
10 10 10 10 10 9 10 11 10 10 8 8 9 9 10 10 10 11 11 11 11 11 11 11 11 11 11 10 10 10 10 10 10 9 9 9 8 8 8 7 7 7 7
10 10 10 10 9 9 9 9 10 11 10 9 9 9 10 10 10 11 11 11 11 11 11 11 11 11 11 10 10 10 10 10 10 9 9 8 9 8 8 7 7 7 7
9 9 9 9 9 9 9 9 9 9 9 10 10 9 10 10 10 11 11 11 11 11 11 11 11 11 11 10 10 10 9 10 9 9 9 9 8 8 8 7 7 7 7
9 9 9 9 9 9 9 9 9 9 9 10 8 9 9 10 10 10 11 10 10 9 9 10 9 10 10 11 10 10 10 9 9 9 9 8 8 7 7 7 7 7 6
Height
1474 1479 1482 1487 1490 1494 1498 1500 1504 1507 1510 1513 1514 1515 1517 1519 1521 1523 1525 1526 1528 1529 1530 1531 1532 1533 1533 1534 1535 1535 1536 1537 1538 1539 1539 1540 1540 1540 1541 1541 1541 1542 1542
1468 1474 1479 1484 1489 1493 1497 1500 1503 1507 1510 1512 1514 1516 1517 1520 1521 1523 1525 1526 1527 1528 1529 1530 1531 1532 1532 1534 1535 1536 1537 1538 1539 1540 1541 1541 1541 1542 1542 1543 1543 1544 1544
1468 1472 1477 1482 1487 1492 1495 1499 1502 1506 1509 1512 1513 1516 1517 1519 1521 1523 1524 1525 1526 1527 1528 1529 1530 1531 1532 1533 1535 1536 1537 1539 1540 1541 1542 1542 1542 1543 1544 1544 1545 1545 1545
1468 1471 1475 1481 1486 1490 1494 1498 1502 1505 1509 1511 1513 1515 1517 1518 1520 1522 1523 1524 1525 1526 1527 1528 1529 1531 1532 1533 1535 1536 1538 1539 1540 1541 1542 1543 1544 1544 1545 1546 1546 1546 1547
1469 1471 1475 1480 1485 1489 1494 1498 1501 1505 1508 1511 1513 1515 1516 1517 1519 1520 1522 1523 1524 1526 1527 1528 1529 1530 1532 1533 1535 1536 1538 1540 1541 1542 1543 1544 1545 1546 1546 1547 1547 1547 1548
1469 1472 1475 1480 1485 1489 1494 1498 1501 1504 1507 1510 1512 1514 1515 1516 1518 1519 1521 1523 1524 1525 1527 1528 1529 1531 1532 1534 1535 1537 1539 1541 1542 1543 1544 1545 1546 1547 1547 1548 1548 1548 1548
1467 1472 1477 1480 1484 1489 1493 1498 1501 1504 1507 1510 1512 1513 1515 1516 1517 1519 1521 1522 1524 1525 1526 1528 1529 1532 1533 1534 1536 1538 1539 1541 1542 1544 1545 1546 1547 1547 1547 1548 1548 1548 1549
1467 1472 1477 1482 1484 1489 1493 1497 1500 1504 1506 1509 1511 1513 1514 1516 1517 1519 1520 1521 1523 1525 1526 1527 1530 1532 1534 1536 1537 1539 1541 1542 1544 1546 1547 1548 1549 1548 1548 1548 1548 1548 1548
1469 1472 1477 1482 1485 1489 1492 1495 1499 1502 1505 1508 1510 1512 1514 1515 1517 1519 1520 1521 1522 1525 1527 1528 1531 1533 1535 1537 1539 1541 1542 1544 1546 1547 1548 1549 1550 1550 1549 1548 1548 1548 1547
1470 1473 1477 1481 1485 1487 1489 1493 1497 1501 1504 1507 1509 1511 1514 1515 1517 1519 1520 1521 1522 1524 1527 1529 1531 1534 1537 1539 1541 1542 1543 1545 1546 1548 1549 1550 1551 1551 1550 1549 1548 1547 1546
1471 1474 1476 1479 1483 1486 1488 1491 1495 1499 1502 1505 1508 1511 1514 1516 1517 1519 1520 1522 1523 1524 1527 1530 1532 1535 1538 1540 1542 1543 1544 1545 1546 1548 1550 1551 1551 1551 1550 1549 1549 1548 1548
1466 1475 1474 1475 1477 1483 1487 1489 1493 1496 1500 1504 1508 1511 1513 1516 1518 1519 1520 1522 1523 1524 1528 1531 1533 1537 1540 1541 1542 1543 1544 1546 1547 1548 1550 1551 1551 1551 1550 1550 1550 1550 1549
1465 1473 1468 1471 1476 1480 1484 1488 1492 1496 1500 1503 1507 1510 1513 1515 1518 1519 1521 1523 1524 1526 1528 1532 1534 1537 1540 1542 1543 1544 1545 1547 1548 1550 1551 1551 1551 1552 1551 1551 1551 1551 1551
1448 1454 1462 1468 1473 1480 1485 1487 1490 1495 1499 1502 1505 1509 1513 1515 1517 1519 1522 1524 1525 1527 1530 1533 1535 1537 1540 1542 1544 1545 1546 1548 1549 1550 1551 1551 1552 1553 1553 1554 1553 1553 1553
1455 1448 1457 1463 1471 1477 1484 1488 1490 1494 1498 1501 1504 1508 1512 1515 1518 1520 1522 1525 1527 1529 1531 1533 1536 1537 1540 1543 1545 1546 1547 1549 1550 1551 1552 1552 1552 1553 1553 1554 1555 1555 1554
1442 1458 1459 1461 1466 1475 1481 1486 1489 1494 1498 1501 1504 1508 1512 1515 1519 1521 1523 1526 1528 1531 1532 1534 1537 1538 1541 1543 1545 1547 1548 1550 1550 1551 1552 1553 1553 1554 1554 1555 1555 1555 1555
1450 1465 1451 1459 1465 1468 1479 1484 1489 1492 1497 1501 1504 1507 1512 1515 1518 1522 1524 1527 1529 1531 1533 1534 1536 1538 1541 1543 1545 1547 1548 1549 1551 1551 1552 1553 1554 1555 1554 1555 1555 1556 1556
1455 1449 1459 1456 1446 1465 1474 1478 1488 1492 1497 1501 1504 1507 1511 1515 1518 1521 1524 1527 1529 1532 1533 1534 1536 1539 1541 1544 1546 1547 1548 1549 1550 1550 1551 1553 1553 1555 1555 1555 1555 1555 1555
1443 1448 1450 1455 1459 1462 1467 1476 1487 1493 1496 1500 1504 1507 1511 1514 1517 1520 1523 1526 1529 1531 1533 1535 1537 1539 1541 1543 1546 1547 1549 1549 1550 1551 1551 1552 1553 1553 1554 1554 1554 1555 1554
1445 1446 1442 1461 1464 1470 1464 1475 1488 1493 1495 1499 1504 1507 1511 1513 1516 1519 1522 1525 1528 1531 1533 1534 1537 1539 1541 1543 1545 1547 1548 1549 1550 1551 1551 1551 1552 1553 1554 1554 1554 1553 1554
1442 1445 1451 1454 1469 1475 1476 1483 1488 1490 1496 1499 1504 1506 1510 1513 1516 1519 1521 1524 1527 1530 1532 1534 1536 1538 1540 1542 1544 1546 1547 1547 1550 1551 1552 1552 1551 1552 1552 1553 1553 1553 1553
1440 1440 1440 1449 1448 1465 1477 1485 1487 1489 1494 1500 1505 1505 1508 1511 1516 1518 1521 1524 1526 1529 1531 1533 1534 1536 1539 1541 1542 1545 1546 1547 1547 1549 1551 1551 1550 1551 1551 1552 1553 1552 1552
1444 1446 1450 1450 1450 1462 1468 1469 1482 1492 1496 1500 1503 1504 1506 1511 1514 1517 1519 1522 1524 1527 1529 1531 1533 1535 1537 1539 1541 1543 1543 1545 1546 1546 1548 1548 1548 1549 1549 1550 1552 1552 1550
1446 1449 1451 1451 1456 1459 1465 1462 1474 1477 1494 1498 1502 1504 1505 1509 1513 1515 1518 1520 1522 1525 1527 1529 1531 1533 1534 1537 1539 1539 1541 1542 1544 1545 1547 1548 1546 1545 1546 1547 1548 1548 1548
1447 1449 1451 1453 1458 1458 1461 1461 1470 1475 1484 1490 1498 1503 1504 1508 1512 1515 1516 1520 1522 1524 1525 1526 1527 1529 1530 1534 1537 1538 1538 1538 1541 1540 1541 1544 1544 1543 1543 1544 1546 1545 1546
1445 1448 1450 1454 1455 1455 1459 1461 1471 1476 1479 1484 1491 1497 1501 1504 1508 1513 1515 1516 1518 1522 1525 1525 1526 1527 1526 1529 1530 1534 1536 1536 1538 1538 1537 1539 1542 1540 1541 1542 1542 1542 1541
Wind_Speed
36 34 33 32 32 31 27 27 25 24 21 20 19 17 16 16 16 15 15 15 12 9 6 5 5 10 10 10 9 9 10 10 12 12 13 12 12 11 12 12 12 12 11
37 37 35 34 33 32 27 27 26 24 22 20 18 18 17 16 15 15 14 12 9 7 6 6 6 6 6 6 7 8 9 9 9 10 10 10 9 10 10 9 10 9 10
39 39 37 35 34 34 29 27 25 23 21 18 17 16 16 15 14 14 13 11 10 8 7 6 6 6 7 7 8 8 9 9 9 9 10 10 9 6 7 8 8 9 8
38 39 38 36 35 35 30 28 26 24 21 21 18 15 15 14 13 12 11 10 9 7 7 7 7 7 8 8 9 9 9 9 9 9 9 8 6 5 6 6 7 8 9
39 39 38 37 36 35 31 29 26 24 24 22 18 15 13 13 13 12 11 10 8 8 7 7 8 8 8 9 9 11 10 9 9 9 8 7 8 9 8 8 7 9 10
40 39 38 38 36 35 32 29 27 27 25 21 16 14 13 13 13 12 11 10 9 9 9 9 9 10 10 11 11 11 10 9 8 6 9 11 13 13 12 11 11 7 7
41 40 39 38 37 34 31 28 28 27 23 18 16 14 14 14 13 13 12 11 10 10 10 10 11 12 11 12 12 12 11 9 9 14 16 17 16 14 10 9 9 6 1
41 40 38 37 36 33 29 29 28 26 21 18 16 15 15 14 13 13 11 10 10 10 11 12 12 14 13 14 14 15 14 13 15 19 18 13 8 8 8 5 3 2 5
40 40 38 36 34 31 31 28 28 24 21 18 16 16 15 14 13 12 11 10 10 11 12 12 15 15 15 15 15 14 13 13 15 15 12 11 9 10 6 4 1 3 5
38 38 34 33 34 34 31 29 26 22 19 17 17 16 15 14 13 13 12 11 11 12 13 14 17 17 16 14 13 11 10 9 11 11 10 11 6 3 6 6 5 10 9
33 35 35 38 37 35 32 28 25 21 19 18 17 16 15 14 13 13 13 13 13 15 13 17 16 17 15 13 10 7 7 8 10 11 8 8 7 10 10 9 10 11 12
37 36 38 40 41 36 32 29 26 23 20 17 17 16 15 14 14 13 14 15 17 16 17 17 16 15 12 9 8 8 10 13 16 17 14 9 10 9 8 8 11 12 12
40 43 39 41 40 37 33 29 25 21 20 20 18 17 16 15 14 14 15 16 17 16 16 17 16 13 10 9 10 12 15 12 13 11 8 5 8 9 9 9 11 11 12
7 26 42 42 39 35 31 29 24 23 22 21 19 17 16 16 16 16 17 18 18 17 15 15 15 14 12 11 11 13 13 11 10 8 7 8 9 10 10 11 12 11 11
15 9 40 43 42 36 31 27 25 24 22 21 20 18 17 16 17 18 19 18 18 17 15 15 14 14 13 12 12 11 11 9 8 8 8 8 8 8 9 10 10 11 11
20 9 11 48 41 35 32 28 25 23 23 21 19 18 17 15 15 16 17 17 17 17 16 15 14 14 13 12 12 12 11 10 9 8 8 7 7 7 7 7 7 8 8
14 11 17 13 43 38 32 27 25 25 23 20 19 18 16 15 15 15 15 16 17 18 16 15 15 13 12 12 11 11 10 9 7 7 6 6 6 5 5 5 5 6 7
16 19 14 9 22 37 33 28 25 24 22 20 19 18 17 16 15 15 15 16 16 15 14 13 13 12 11 10 9 9 8 7 6 6 5 4 4 4 3 4 4 4 5
8 16 9 6 7 35 33 27 25 23 20 19 17 16 16 15 15 14 15 16 16 15 14 13 12 10 10 9 8 7 6 5 5 5 5 4 3 2 2 2 2 3 4
14 9 8 6 13 5 27 27 23 20 19 17 16 15 15 15 15 15 15 15 15 15 14 13 12 11 9 7 6 5 4 3 3 3 3 4 2 1 1 2 2 3 4
15 9 15 15 14 1 7 16 19 17 16 15 15 15 14 14 14 14 14 15 15 14 13 12 11 10 9 7 6 5 5 4 4 5 4 4 3 2 1 2 3 3 4
19 15 15 16 10 20 10 15 6 12 13 14 16 16 15 14 14 14 13 14 14 14 14 13 12 11 9 8 6 5 4 5 7 7 6 6 5 4 4 4 4 4 4
16 19 18 19 20 24 24 16 12 12 12 16 18 17 16 15 15 14 14 14 14 14 14 13 11 10 9 8 7 5 3 2 3 6 9 9 8 6 6 5 6 7 7
14 17 17 16 27 30 28 28 21 25 20 16 15 15 16 16 15 14 14 14 14 14 13 12 11 10 8 8 8 5 5 5 3 2 5 8 8 8 8 8 9 10 11
15 16 16 17 29 30 28 28 29 28 29 21 18 16 14 13 12 11 12 12 12 13 13 13 13 12 10 8 6 6 6 6 7 7 6 7 8 8 9 10 12 12 13
13 15 17 16 21 25 25 27 30 37 32 32 32 23 17 14 13 13 14 15 14 14 14 14 13 11 11 8 8 10 9 7 8 8 7 9 10 8 10 11 13 13 13
Wind_Direction
188 183 177 177 173 171 166 169 169 169 163 164 164 162 160 158 159 154 150 150 150 157 174 191 171 144 135 131 125 123 121 114 113 112 99 88 80 82 81 79 77 72 73
183 181 178 178 175 172 168 170 171 168 168 169 171 167 164 162 160 163 167 176 186 200 210 208 201 184 169 153 146 145 141 135 125 117 110 93 86 79 78 77 76 69 70
181 178 177 178 176 174 172 171 170 170 171 173 178 175 176 176 177 180 187 196 208 212 198 191 187 179 171 170 170 161 152 139 133 132 120 98 81 88 85 81 83 75 62
183 178 177 178 177 176 175 171 171 171 168 171 173 170 176 181 186 194 199 200 198 189 175 167 165 165 163 165 167 162 156 145 142 134 129 99 78 88 94 82 77 72 72
184 180 178 177 177 177 175 174 172 169 175 178 183 186 189 191 192 193 191 185 179 169 161 160 156 154 150 148 151 157 156 152 146 129 112 94 87 83 83 86 96 94 89
185 182 178 177 176 176 175 175 171 173 180 183 188 194 193 190 187 184 179 175 171 163 160 161 157 147 143 140 140 145 149 153 152 136 110 104 101 97 97 92 85 103 105
185 182 179 178 176 176 175 172 177 180 183 191 197 195 190 184 179 176 174 171 168 162 159 159 156 145 144 133 131 131 129 132 135 126 114 113 106 103 119 116 102 92 96
186 181 180 179 177 175 173 179 182 184 191 197 198 193 186 177 175 173 170 167 166 158 157 163 153 138 135 130 124 118 113 116 124 125 118 123 121 109 96 194 217 257 272
187 181 179 179 176 175 178 181 185 192 195 197 194 189 180 172 173 171 168 167 164 158 158 163 140 137 137 135 130 123 117 122 132 133 129 119 118 107 108 116 155 254 285
187 183 177 178 182 179 182 181 187 193 194 196 190 185 177 171 172 171 168 166 164 156 159 154 145 143 140 138 137 134 132 136 150 147 136 125 131 89 95 95 51 63 59
185 183 183 187 186 184 183 184 188 192 191 193 188 181 177 173 172 170 166 163 160 159 156 150 148 145 147 148 149 154 154 145 153 154 149 164 187 106 93 71 68 67 67
188 195 192 191 189 187 187 186 189 190 192 185 181 177 173 171 171 170 163 163 162 163 150 146 143 143 146 148 154 153 150 141 139 133 131 135 104 98 77 60 69 69 68
186 195 196 196 192 193 190 189 189 188 184 180 179 177 175 173 171 168 165 163 158 158 149 145 140 140 141 134 132 137 143 139 127 130 121 98 92 84 83 76 72 67 66
183 196 200 197 199 194 194 190 188 186 183 181 178 177 176 172 167 164 162 157 158 158 155 148 144 141 141 131 126 137 141 141 133 132 113 103 93 86 81 73 68 64 60
298 355 204 202 202 194 195 190 187 184 182 180 175 173 172 170 165 162 161 161 162 163 164 154 148 141 142 135 127 129 133 135 132 124 115 105 95 90 84 81 72 62 52
347 250 205 202 196 196 192 192 186 182 180 177 174 171 167 169 169 166 164 165 167 166 162 156 150 143 138 132 131 129 127 127 124 119 112 104 97 89 81 71 59 51 44
310 256 229 222 204 193 192 188 186 181 180 177 174 171 171 170 172 171 168 165 164 165 164 160 154 147 143 137 134 130 127 127 125 123 118 110 96 83 81 71 61 45 37
192 199 222 247 202 191 189 184 184 179 177 176 175 173 171 170 170 172 171 169 167 167 166 162 158 153 149 143 143 139 137 133 134 133 129 121 105 71 73 52 45 33 24
129 197 183 341 261 181 177 176 178 176 175 176 176 173 172 170 172 175 173 172 171 171 169 167 165 163 156 153 157 151 149 147 150 151 150 140 119 85 67 40 28 10 7
176 198 207 173 331 355 151 156 167 173 173 176 179 176 176 174 175 175 176 177 176 176 176 173 175 170 170 172 174 174 175 180 184 187 178 172 169 73 10 3 354 342 349
183 189 182 209 229 263 108 143 161 166 175 177 181 180 180 180 180 178 179 180 180 180 179 177 176 175 176 181 188 204 216 219 225 224 216 208 216 258 282 310 321 334 344
192 185 164 176 177 215 254 199 148 167 180 192 193 185 183 181 183 184 184 183 184 184 182 184 185 184 184 186 189 195 215 233 237 236 234 230 239 249 270 294 296 316 325
196 193 195 192 160 172 182 168 229 232 196 196 195 189 182 183 185 185 185 187 187 187 189 187 187 186 188 189 192 197 181 194 208 230 237 243 245 250 267 281 283 300 303
202 210 212 192 189 174 180 175 183 178 221 202 197 189 182 183 187 187 189 192 192 193 195 194 192 193 194 199 198 208 223 225 204 220 256 258 254 261 270 274 277 292 297
208 210 201 196 199 193 196 189 184 192 183 200 189 187 181 184 186 190 190 199 201 204 204 203 201 199 197 198 214 220 223 222 238 234 252 261 259 260 261 271 279 289 294
203 206 205 211 210 208 208 200 198 193 200 197 191 181 180 181 188 196 198 200 202 206 209 205 203 199 190 202 250 238 238 238 241 240 251 259 260 262 271 277 281 288 289